Location: Ripley
(48.3812°N, 115.4473°W)
Time: 05:33:43
(UTC+00:00)

EO-88 - Pass Details

Date: 03 July 2022
Orbit: 453 x 461 km, 97.3° (Epoch: 17 August)

Event Time Altitude Azimuth Distance (km) Brightness Sun altitude
Exits shadow 05:14:33 12° 178° (S) 1,484 ? -11.0°
Maximum altitude 05:17:40 61° 259° (WSW) 535 ? -11.3°
Drops below altitude 10° 05:21:09 10° 341° (NNW) 1,634 ? -11.6°
Sets 05:23:14 0° 345° (NNW) 2,515 ? -11.8°
